CAPE
0 0 0 0 0 0 0 0 0 0 0 0 0 0 0 0 0 0 0 0 0 0 0 0 0 0 0 0 0 0 0 0 0 0 0 164 156 142 250 555 475 344 507 830 1224
0 0 0 0 0 0 0 0 0 0 0 0 0 0 0 0 0 0 0 0 0 0 0 0 0 0 0 0 0 0 0 0 0 0 0 48 193 139 466 559 593 473 918 1084 989
0 0 0 0 0 0 0 0 0 0 0 0 0 0 0 0 0 0 0 0 0 0 0 0 0 0 0 0 0 0 0 0 0 0 0 18 145 570 731 521 570 409 795 1143 909
0 0 0 0 0 0 0 0 0 0 0 0 0 0 0 0 0 0 0 0 0 0 0 0 0 0 0 0 0 0 0 0 0 0 0 0 138 535 902 670 526 617 965 1208 856
0 0 0 0 0 0 0 0 0 0 0 0 0 0 0 0 0 0 0 0 0 0 0 0 0 0 0 0 0 0 0 0 0 0 0 0 55 402 587 855 802 819 1003 1110 927
0 0 0 0 0 0 0 0 0 0 0 0 0 0 0 0 0 0 0 0 0 0 0 0 0 0 0 0 0 0 0 0 0 0 0 0 70 228 395 651 890 921 962 1176 992
0 0 0 0 0 0 0 0 0 0 0 0 0 0 0 0 0 0 0 0 0 0 0 0 0 0 0 0 0 0 0 0 0 0 0 76 7 15 429 735 963 1036 1074 1142 1079
0 0 0 0 0 0 0 0 0 0 0 0 0 0 0 0 0 0 0 0 0 0 0 0 0 0 0 0 0 0 0 0 0 0 12 35 0 9 616 914 1050 1001 997 785 610
0 0 0 0 0 0 0 0 0 0 0 0 0 0 0 0 0 0 0 0 0 0 0 0 0 0 0 0 0 0 0 0 0 13 49 32 0 125 694 944 1033 987 849 523 387
0 0 0 0 0 0 0 0 0 0 0 0 0 0 0 0 0 0 0 0 0 0 0 0 0 0 0 0 0 0 0 0 0 52 197 0 2 322 724 893 947 970 837 585 521
0 0 0 0 0 0 0 0 0 0 0 0 0 0 0 0 0 0 0 0 0 0 0 0 0 0 0 0 0 0 0 0 0 0 77 95 0 301 752 923 934 880 826 691 445
0 0 0 0 0 0 0 0 0 0 0 0 0 0 0 0 0 0 0 0 0 0 0 0 0 0 0 0 0 0 0 0 0 0 73 49 34 195 685 777 888 832 801 635 299
0 0 0 0 0 0 0 0 0 0 0 0 0 0 0 0 0 0 0 0 0 0 0 0 0 0 0 0 0 0 0 0 0 0 0 0 0 0 163 875 955 925 849 554 238
0 0 0 0 0 0 0 0 0 0 0 0 0 0 0 0 0 0 0 0 0 0 0 0 0 0 0 0 0 0 0 0 0 0 0 0 0 0 237 351 872 793 678 533 266
0 0 0 0 0 0 0 0 0 0 0 0 0 0 0 0 0 0 0 0 0 0 0 0 0 0 0 0 0 0 0 0 0 0 0 0 0 0 444 266 356 739 813 610 309
0 0 0 0 0 0 0 0 0 0 0 0 0 0 0 0 0 0 0 0 0 0 0 0 0 0 0 0 0 0 0 0 0 0 0 0 0 0 2 23 119 613 932 676 335
0 0 0 0 0 0 0 0 0 0 0 0 0 0 0 0 0 0 0 0 0 0 0 0 0 0 0 0 0 0 0 0 0 0 0 0 0 0 0 75 163 527 865 834 269
0 0 0 0 0 0 0 0 0 0 0 0 0 0 0 0 0 0 0 0 0 0 0 0 0 0 0 0 0 0 0 0 0 0 0 0 0 0 0 0 31 296 807 753 89
0 0 0 0 0 0 0 0 0 0 0 0 0 0 0 0 0 0 0 0 0 0 0 0 0 0 0 0 0 0 0 0 0 0 0 0 0 0 0 1 108 286 828 543 110
0 0 0 0 0 0 0 0 0 0 0 0 0 0 0 0 0 0 0 0 0 0 0 0 0 0 0 0 0 0 0 0 0 0 0 0 0 0 0 5 135 298 527 582 151
0 0 0 0 0 0 0 0 0 0 0 0 0 0 0 0 0 0 0 0 0 0 0 0 0 0 0 7 24 17 0 0 0 0 0 0 0 0 0 1 81 151 577 449 173
0 0 0 0 0 0 0 0 0 0 0 0 0 0 0 0 0 0 0 0 0 0 0 0 0 0 0 0 0 0 26 20 12 0 0 0 0 0 0 0 123 292 468 339 171
0 0 0 0 0 0 0 0 0 0 0 0 0 0 0 0 0 0 0 0 0 0 0 0 0 0 0 0 0 37 17 12 2 0 8 0 0 0 0 0 31 183 264 296 160
0 0 0 0 0 0 0 0 0 0 0 0 0 0 0 0 0 0 0 0 0 0 0 0 5 0 0 0 0 0 0 2 0 0 2 1 0 4 2 4 20 232 260 293 178
0 0 0 0 0 0 0 0 0 0 0 0 0 0 0 0 0 0 0 0 0 0 0 0 0 0 0 0 0 0 0 0 0 0 0 0 1 33 51 27 7 123 397 322 192
0 0 0 0 0 0 0 0 0 0 0 0 0 0 0 0 0 0 0 0 0 0 0 0 0 0 0 0 0 0 0 0 0 0 0 0 0 40 17 0 0 66 310 377 204
0 0 0 0 0 0 0 0 0 0 0 0 0 0 0 0 0 0 0 0 0 0 0 0 0 0 0 0 0 0 0 0 0 0 4 10 17 44 52 55 3 62 231 297 304
CIN
0 0 0 0 0 0 0 0 0 0 0 0 0 0 0 0 0 0 0 0 0 0 0 0 0 0 0 0 0 0 0 0 0 0 0 -292 -273 -346 -310 -185 -155 -169 -137 -95 -77
0 0 0 0 0 0 0 0 0 0 0 0 0 0 0 0 0 0 0 0 0 0 0 0 0 0 0 0 0 0 0 0 0 0 0 -252 -242 -252 -204 -189 -157 -179 -144 -124 -122
0 0 0 0 0 0 0 0 0 0 0 0 0 0 0 0 0 0 0 0 0 0 0 0 0 0 0 0 0 0 0 0 0 0 0 -258 -230 -184 -127 -155 -150 -149 -163 -136 -141
0 0 0 0 0 0 0 0 0 0 0 0 0 0 0 0 0 0 0 0 0 0 0 0 0 0 0 0 0 0 0 0 0 0 0 0 -197 -183 -125 -153 -159 -176 -143 -145 -150
0 0 0 0 0 0 0 0 0 0 0 0 0 0 0 0 0 0 0 0 0 0 0 0 0 0 0 0 0 0 0 0 0 0 0 0 -216 -126 -142 -186 -182 -178 -168 -130 -121
0 0 0 0 0 0 0 0 0 0 0 0 0 0 0 0 0 0 0 0 0 0 0 0 0 0 0 0 0 0 0 0 0 0 0 0 -252 -182 -152 -244 -208 -173 -157 -126 -129
0 0 0 0 0 0 0 0 0 0 0 0 0 0 0 0 0 0 0 0 0 0 0 0 0 0 0 0 0 0 0 0 0 0 0 -257 -213 -280 -202 -223 -174 -163 -148 -113 -91
0 0 0 0 0 0 0 0 0 0 0 0 0 0 0 0 0 0 0 0 0 0 0 0 0 0 0 0 0 0 0 0 0 0 -59 -113 0 -160 -273 -191 -158 -175 -160 -192 -213
0 0 0 0 0 0 0 0 0 0 0 0 0 0 0 0 0 0 0 0 0 0 0 0 0 0 0 0 0 0 0 0 0 -112 -201 -145 0 -178 -253 -181 -161 -190 -219 -300 -340
0 0 0 0 0 0 0 0 0 0 0 0 0 0 0 0 0 0 0 0 0 0 0 0 0 0 0 0 0 0 0 0 0 -131 -165 0 -21 -182 -229 -189 -178 -207 -252 -313 -299
0 0 0 0 0 0 0 0 0 0 0 0 0 0 0 0 0 0 0 0 0 0 0 0 0 0 0 0 0 0 0 0 0 0 -102 -67 0 -101 -190 -173 -177 -236 -254 -267 -299
0 0 0 0 0 0 0 0 0 0 0 0 0 0 0 0 0 0 0 0 0 0 0 0 0 0 0 0 0 0 0 0 0 0 -75 -38 -41 -114 -146 -166 -164 -180 -225 -258 -326
0 0 0 0 0 0 0 0 0 0 0 0 0 0 0 0 0 0 0 0 0 0 0 0 0 0 0 0 0 0 0 0 0 0 0 0 0 0 -213 -163 -178 -183 -156 -215 -354
0 0 0 0 0 0 0 0 0 0 0 0 0 0 0 0 0 0 0 0 0 0 0 0 0 0 0 0 0 0 0 0 0 0 0 0 0 0 -179 -239 -211 -193 -209 -253 -375
0 0 0 0 0 0 0 0 0 0 0 0 0 0 0 0 0 0 0 0 0 0 0 0 0 0 0 0 0 0 0 0 0 0 0 0 0 0 -210 -159 -213 -278 -241 -266 -395
0 0 0 0 0 0 0 0 0 0 0 0 0 0 0 0 0 0 0 0 0 0 0 0 0 0 0 0 0 0 0 0 0 0 0 0 0 0 -29 -38 -78 -223 -265 -305 -386
0 0 0 0 0 0 0 0 0 0 0 0 0 0 0 0 0 0 0 0 0 0 0 0 0 0 0 0 0 0 0 0 0 0 0 0 0 0 0 -71 -88 -125 -203 -289 -428
0 0 0 0 0 0 0 0 0 0 0 0 0 0 0 0 0 0 0 0 0 0 0 0 0 0 0 0 0 0 0 0 0 0 0 0 0 0 0 0 -242 -258 -244 -338 -616
0 0 0 0 0 0 0 0 0 0 0 0 0 0 0 0 0 0 0 0 0 0 0 0 0 0 0 0 0 0 0 0 0 0 0 0 0 0 0 -8 -194 -219 -285 -443 -656
0 0 0 0 0 0 0 0 0 0 0 0 0 0 0 0 0 0 0 0 0 0 0 0 0 0 0 0 0 0 0 0 0 0 0 0 0 0 0 -6 -91 -146 -198 -400 -644
0 0 0 0 0 0 0 0 0 0 0 0 0 0 0 0 0 0 0 0 0 0 0 0 0 0 0 -83 -71 -45 0 0 0 0 0 0 0 0 0 -9 -23 -52 -183 -393 -583
0 0 0 0 0 0 0 0 0 0 0 0 0 0 0 0 0 0 0 0 0 0 0 0 0 0 0 0 -6 0 -128 -121 -45 -2 0 0 0 0 0 0 -102 -95 -225 -435 -583
0 0 0 0 0 0 0 0 0 0 0 0 0 0 0 0 0 0 0 0 0 0 0 0 0 0 0 0 0 -83 -129 -141 -122 0 -57 0 0 0 0 0 -182 -163 -240 -404 -629
0 0 0 0 0 0 0 0 0 0 0 0 0 0 0 0 0 0 0 0 0 0 0 0 -55 0 0 0 0 0 0 -156 -30 0 -33 -38 0 -59 -46 -104 -162 -235 -305 -367 -579
0 0 0 0 0 0 0 0 0 0 0 0 0 0 0 0 0 0 0 0 0 0 0 0 0 0 0 0 0 0 0 0 0 -110 0 0 -19 -64 -96 -191 -233 -263 -376 -354 -508
0 0 0 0 0 0 0 0 0 0 0 0 0 0 0 0 0 0 0 0 0 0 0 0 0 0 0 0 0 0 0 0 0 0 0 0 0 -141 -237 -3 0 -267 -266 -308 -419
0 0 0 0 0 0 0 0 0 0 0 0 0 0 0 0 0 0 0 0 0 0 0 0 0 0 0 0 0 0 0 0 0 0 -127 -133 -122 -275 -210 -257 -357 -249 -153 -157 -288
Wind_Speed
25 26 26 26 26 27 26 26 26 25 23 24 26 28 29 29 27 21 23 14 14 8 7 9 10 9 10 10 13 12 10 9 9 8 12 8 7 9 11 11 10 11 13 12 17
27 27 27 27 28 28 28 28 27 26 25 25 27 27 27 27 25 22 15 14 11 6 2 5 8 7 9 10 12 10 9 9 15 10 10 5 6 10 11 10 9 10 13 14 14
27 27 28 29 29 29 29 29 29 28 27 26 26 26 26 24 20 15 16 15 7 6 5 7 8 9 10 11 12 12 11 16 16 10 9 5 8 8 9 8 11 13 11 13 13
27 27 28 28 28 28 28 27 28 29 29 28 28 27 24 18 16 15 20 13 8 8 6 5 6 5 8 8 12 14 18 18 19 8 8 3 4 11 11 10 9 13 10 11 12
28 28 29 30 29 29 29 28 28 28 29 28 26 24 19 18 11 15 16 12 9 8 6 6 4 5 2 8 9 12 13 18 21 14 13 6 9 9 16 5 7 7 8 8 9
29 30 31 31 31 31 31 31 30 29 28 26 21 18 18 15 15 15 11 11 10 9 9 7 6 7 7 8 10 8 12 17 20 16 13 5 0 1 12 2 4 4 4 6 7
30 31 31 32 32 32 32 31 30 29 27 20 15 15 17 14 13 14 11 12 10 11 10 9 8 9 8 8 12 13 14 18 20 17 14 9 10 15 9 3 2 2 4 3 1
30 31 31 32 32 33 31 30 28 26 19 15 13 16 17 15 14 13 11 12 12 12 11 10 8 11 12 11 13 14 17 17 19 14 14 5 7 5 3 1 2 3 2 1 0
31 32 33 33 33 32 30 28 23 20 17 14 16 17 18 16 15 13 7 11 10 10 9 9 10 13 12 13 14 15 12 11 15 11 13 6 11 9 1 3 5 4 4 4 5
32 33 33 34 33 29 28 24 20 18 17 17 17 17 15 13 17 15 10 7 11 9 10 11 12 12 13 14 12 12 12 11 12 9 8 5 12 11 2 4 7 6 6 9 8
34 34 34 34 31 27 26 22 25 21 20 19 21 20 22 20 16 12 11 8 10 12 11 13 12 12 14 14 15 15 15 16 15 10 6 4 11 15 5 4 7 8 7 9 8
36 35 35 34 30 27 21 21 21 21 21 19 20 20 18 15 15 13 8 10 9 11 12 14 16 17 13 12 14 15 18 17 18 12 12 15 12 15 6 10 11 11 9 9 6
37 37 36 34 28 22 21 19 21 18 18 21 20 22 21 12 11 10 7 10 11 13 14 16 15 14 12 14 16 19 20 18 17 16 15 18 19 10 7 7 8 9 9 8 9
36 36 35 32 20 22 19 20 24 14 19 22 22 21 20 14 14 14 8 11 13 15 13 17 17 17 15 17 16 20 16 16 16 15 21 11 27 16 8 5 8 10 13 14 14
36 35 32 24 20 20 22 25 17 15 19 23 20 18 21 16 18 18 10 11 12 13 13 16 16 16 16 15 13 18 17 20 19 17 19 16 23 20 12 3 10 11 17 14 13
36 35 27 19 19 20 26 20 15 18 19 18 19 21 19 19 18 16 13 12 14 16 18 21 18 19 18 20 18 22 22 19 17 16 24 20 15 23 15 6 6 6 15 13 10
36 32 19 18 22 26 24 15 17 17 19 20 20 21 19 20 20 18 15 13 16 18 20 22 24 21 18 24 19 19 20 22 21 20 25 19 18 21 15 5 6 14 6 9 8
36 24 16 19 24 24 19 16 17 16 17 20 21 18 17 20 20 21 14 15 18 20 21 22 22 17 18 18 20 17 20 22 26 25 27 20 22 23 21 25 28 15 9 5 7
32 19 18 25 21 23 16 15 15 15 18 20 19 18 19 21 20 20 17 19 20 21 21 21 21 22 20 19 20 19 24 19 23 24 27 25 25 27 21 23 18 10 3 4 7
25 19 20 26 20 19 15 12 13 14 17 17 18 18 19 22 21 21 19 20 21 22 22 21 25 18 21 21 18 21 18 26 24 30 34 26 24 26 22 21 10 1 1 2 4
22 17 22 25 18 18 13 13 12 15 17 17 17 18 18 20 20 21 20 18 23 25 22 24 22 23 23 22 26 23 22 23 24 27 32 35 28 22 22 14 4 5 5 3 4
22 18 24 21 16 16 13 14 16 17 19 18 17 17 18 19 20 20 19 18 22 23 25 23 24 29 29 27 24 20 20 21 26 28 29 33 38 26 28 28 18 11 6 1 5
23 18 21 19 15 14 15 15 17 19 20 19 18 18 18 19 22 19 20 20 26 24 25 26 24 32 31 24 19 19 20 20 22 24 29 32 32 27 35 33 27 10 4 2 5
21 21 20 18 16 16 16 17 18 19 20 21 20 18 20 20 20 21 22 22 28 27 23 20 24 27 34 32 29 33 30 27 26 33 35 34 39 40 36 34 30 18 5 3 5
21 19 18 20 19 18 18 18 19 19 20 22 20 22 22 23 23 24 23 25 26 21 20 23 28 31 32 33 35 36 35 34 34 35 39 42 41 39 40 37 36 22 10 5 6
20 20 20 20 20 19 19 20 22 23 23 22 22 25 24 25 24 26 26 24 23 23 25 24 29 32 38 34 36 42 39 35 35 37 39 42 48 34 33 33 30 13 9 8 8
19 18 20 20 20 20 20 19 20 21 20 18 24 26 27 24 27 30 28 27 24 27 26 24 25 29 35 30 35 42 33 32 31 30 30 36 38 39 40 34 30 25 9 11 12
Wind_Direction
311 311 307 306 303 300 297 293 292 287 282 285 291 301 305 306 304 328 302 326 319 314 318 308 302 284 279 287 290 294 303 304 306 315 327 10 70 52 49 61 55 86 35 65 96
314 310 308 306 303 301 299 294 291 286 284 287 293 296 304 312 320 307 330 330 331 1 337 314 304 291 280 283 285 288 288 296 291 300 329 31 102 103 89 63 37 84 39 90 99
314 310 313 309 305 305 304 297 294 290 290 288 291 293 310 323 326 336 332 340 12 38 345 308 304 297 282 282 281 285 283 284 286 294 318 20 127 107 90 85 109 123 90 107 110
313 311 310 307 303 300 298 291 289 291 292 294 302 312 321 0 1 337 311 3 77 355 360 3 320 309 289 282 281 289 277 278 286 296 310 2 67 147 140 359 111 122 102 115 121
317 313 312 311 305 301 298 292 288 286 287 296 311 322 351 357 35 345 342 21 42 0 356 348 353 325 282 285 290 289 295 278 277 298 303 332 152 147 170 344 48 105 109 116 125
319 318 317 315 311 306 301 296 291 288 289 301 327 340 351 5 358 349 30 34 26 358 340 333 331 329 332 307 297 299 299 290 283 287 298 310 33 112 168 330 9 90 127 130 135
321 321 318 316 313 308 304 300 296 299 305 331 351 351 351 5 7 13 18 355 38 358 348 317 331 326 332 317 301 304 296 291 286 288 294 301 302 183 306 299 324 77 110 131 331
319 319 318 316 316 313 308 306 305 316 350 4 10 345 341 342 343 330 355 347 350 342 336 319 327 323 311 315 303 298 294 292 288 289 294 292 292 199 295 254 133 118 98 114 97
319 319 318 317 317 314 311 314 340 355 7 18 349 338 328 333 340 342 11 0 3 347 6 2 319 309 311 305 301 299 308 305 296 293 298 285 298 307 204 163 150 142 143 141 155
319 319 317 316 315 311 312 352 12 8 5 358 346 334 330 340 331 333 348 12 345 4 335 320 319 314 307 304 303 306 304 308 309 304 297 267 299 311 231 185 172 167 164 161 164
319 317 315 314 313 309 343 7 349 354 354 348 330 323 307 312 328 345 341 352 334 322 322 311 317 311 305 309 307 301 300 297 307 319 306 288 298 300 290 227 197 187 186 179 171
318 316 315 315 313 325 7 1 4 356 334 347 346 343 333 319 313 321 351 331 326 319 320 314 308 307 310 312 311 305 294 293 299 311 302 304 300 303 262 204 201 200 201 196 203
317 317 316 316 322 359 6 14 10 19 344 340 349 346 340 354 322 330 353 337 323 315 313 306 313 334 315 311 302 298 291 290 293 305 305 309 306 306 285 229 221 218 221 219 197
314 315 317 315 356 355 1 4 348 41 335 334 343 353 354 356 337 339 329 333 322 310 317 312 313 310 310 304 304 302 301 294 297 305 300 312 294 316 318 214 206 211 199 189 187
314 314 318 349 357 354 344 332 17 14 326 328 344 1 340 340 320 336 335 322 315 319 325 315 320 320 317 313 319 307 312 303 298 299 304 304 299 306 325 318 194 194 190 195 192
312 314 336 4 3 356 320 342 16 340 327 336 335 327 335 338 338 335 338 333 321 309 306 301 320 314 309 308 306 301 302 307 305 300 292 299 295 295 310 325 330 198 191 196 195
310 311 358 4 346 327 331 358 342 335 340 331 320 317 330 326 333 329 326 320 313 307 303 306 301 313 316 303 306 303 301 297 293 293 292 306 295 298 310 235 300 312 208 202 199
311 342 359 350 330 336 347 345 329 340 337 330 316 320 329 323 328 324 335 330 328 311 308 306 306 318 324 311 307 309 305 299 290 292 295 309 300 305 310 301 292 304 305 215 207
322 353 352 325 334 333 346 343 337 338 333 326 326 319 316 320 321 327 338 321 323 323 314 311 308 317 313 314 308 304 295 307 300 302 298 301 305 302 308 309 309 304 288 202 188
347 349 344 317 339 341 347 353 347 344 337 334 325 326 321 320 321 321 321 328 320 331 326 316 306 322 319 320 317 303 309 291 293 287 284 296 303 305 315 317 317 304 190 211 179
345 348 337 319 344 345 350 347 345 343 335 331 325 322 325 325 328 324 321 328 327 320 328 322 313 309 317 317 308 308 303 300 295 290 286 285 294 318 315 320 274 239 289 263 174
342 339 329 326 345 347 349 342 331 325 326 324 326 326 324 325 321 322 323 330 338 331 321 323 315 305 305 309 310 311 310 306 291 289 289 287 283 306 308 303 306 304 305 254 151
339 340 330 326 335 340 336 330 329 320 318 316 317 323 325 320 315 318 319 329 326 328 323 322 313 303 304 311 318 310 312 313 307 301 291 287 287 304 294 292 291 301 283 200 150
339 332 336 337 335 332 329 321 318 319 317 315 315 321 317 314 318 314 316 323 318 322 328 328 314 306 296 300 307 297 294 300 300 291 289 287 290 280 285 286 291 292 265 196 162
338 333 333 322 327 326 323 317 314 313 316 315 313 313 312 307 310 308 314 313 321 329 335 326 307 304 302 301 299 297 294 292 289 290 284 284 285 284 278 285 278 286 277 216 176
331 327 323 323 323 321 318 313 306 307 308 308 308 307 308 303 304 304 308 313 315 320 321 323 309 308 299 301 297 290 292 292 290 289 287 283 275 291 294 292 288 285 254 230 202
332 330 322 320 319 317 314 312 311 311 315 316 310 305 304 305 303 301 302 303 306 310 313 314 313 312 302 309 304 292 300 298 293 294 293 284 284 286 281 280 284 280 233 221 202